This is the latest recevied weather packets stored in our database for station/object KD8PH. If no packets are shown the sender has not sent any weather packets the latest 10 day(s).
| Time | Temp. | Humidity | Pressure | Rain* | Wind** | Luminosity | Snow |
|---|---|---|---|---|---|---|---|
| 1777985137 | 16.67° C | 73% | 1013.4 hPa | 0 mm | - | - | - |
| 1777984544 | 16.67° C | 74% | 1013.4 hPa | 0 mm | - | - | - |
| 1777983936 | 16.11° C | 76% | 1013.4 hPa | 0 mm | - | - | - |
| 1777983338 | 15.56° C | 82% | 1013.4 hPa | 0 mm | - | - | - |
| 1777982737 | 14.44° C | 84% | 1012.9 hPa | 0 mm | - | - | - |
| 1777982136 | 13.89° C | 83% | 1012.7 hPa | 0 mm | - | - | - |
| 1777981543 | 13.89° C | 82% | 1012.4 hPa | 0 mm | - | - | - |
| 1777980948 | 13.89° C | 81% | 1012.3 hPa | 0 mm | - | - | - |
| 1777980348 | 14.44° C | 79% | 1012.3 hPa | 0 mm | - | - | - |
| 1777979737 | 15.56° C | 76% | 1011.9 hPa | 0 mm | - | - | - |
| 1777979141 | 16.11° C | 74% | 1011.8 hPa | 0 mm | - | - | - |
| 1777978549 | 16.11° C | 73% | 1011.8 hPa | 0 mm | - | - | - |
| 1777977946 | 16.11° C | 72% | 1011.7 hPa | 0 mm | - | - | - |
| 1777977343 | 16.11° C | 72% | 1011.5 hPa | 0 mm | - | - | - |
| 1777976745 | 16.11° C | 72% | 1011.4 hPa | 0 mm | - | - | - |
| 1777976152 | 16.11° C | 72% | 1011.3 hPa | 0 mm | - | - | - |
| 1777975544 | 16.11° C | 71% | 1011.3 hPa | 0 mm | - | - | - |
| 1777974944 | 16.11° C | 72% | 1011.4 hPa | 0 mm | - | - | - |
| 1777974340 | 16.11° C | 71% | 1011.5 hPa | 0 mm | - | - | - |
| 1777973741 | 16.11° C | 72% | 1011.5 hPa | 0 mm | - | - | - |
| 1777973144 | 16.11° C | 72% | 1011.5 hPa | 0 mm | - | - | - |
| 1777972537 | 16.67° C | 70% | 1011.6 hPa | 0 mm | - | - | - |
| 1777971934 | 16.11° C | 72% | 1011.6 hPa | 0 mm | - | - | - |
| 1777971343 | 15.56° C | 77% | 1011.6 hPa | 0 mm | - | - | - |
| 1777970743 | 14.44° C | 84% | 1011.5 hPa | 0 mm | - | - | - |
* Rain latest hour (hover to see other rain measurements)
** Current wind speed in m/s (hover to see current wind gust speed)